Location: Enborne
(51.3833°N, 1.3667°W)
Time: 23:03:16
(UTC+00:00)

Sich 1 Rocket - Pass Details

Date: 18 September 2020
Orbit: 616 x 653 km, 82.5° (Epoch: 30 October)

Event Time Altitude Azimuth Distance (km) Brightness Sun altitude
Rises 19:21:11 0° 184° (S) 2,919 6.9 -11.4°
Reaches altitude 10° 19:23:24 10° 183° (S) 2,021 6.0 -11.8°
Maximum altitude 19:27:53 76° 98° (E) 668 3.5 -12.4°
Drops below altitude 10° 19:32:27 10° 13° (NNE) 2,059 6.3 -13.1°
Sets 19:34:43 0° 12° (NNE) 2,979 7.2 -13.4°
